Preview of NWS' New Version of Forecast
This preview is not operational and should not be used for support decisions.

Regional Weather Roundup (RWR)

Issued by National Weather Service (NWS)

                            
000
ASUS43 KDMX 202106
RWRIA 

WEATHER ROUNDUP FOR IOWA
NATIONAL WEATHER SERVICE DES MOINES IA
300 PM CST WED FEB 20 2019

NOTE: "FAIR" INDICATES FEW OR NO CLOUDS BELOW 12,000 FEET WITH NO
SIGNIFICANT WEATHER AND/OR OBSTRUCTIONS TO VISIBILITY.

* - THESE STATIONS ARE NOT NWS STATIONS...THUS NOT UNDER NWS
QUALITY CONTROL.  THEY ALSO DO NOT REPORT WEATHER SUCH 
AS PRECIPITATION OR FOG.  

IAZ001>003-012>014-020>022-031>034-043>046-202200-
   NORTHWEST IOWA
  
CITY           SKY/WX    TMP DP  RH WIND       PRES   REMARKS
CARROLL *      PTSUNNY   27  23  86 W20G28    29.64R WCI  13          
CHEROKEE *     MOSUNNY   23  19  83 W10       29.62S WCI  13          
DENISON *      MOSUNNY   27  19  74 SW13G21   29.66R WCI  16          
LE MARS *      PTSUNNY   23  18  80 SW13      29.62S WCI  11          
ORANGE CITY *  MOSUNNY   21  19  93 W13       29.59S WCI   9          
SHELDON *      PTSUNNY   21  21 100 W15       29.57R FOG     WCI   8  
SIOUX CITY     PTSUNNY   23  16  74 W12       29.65S WCI  12          
SPENCER        PTSUNNY   23  17  78 W18       29.58S HAZE    WCI   9  
STORM LAKE *   MOSUNNY   21  19  93 W13G20    29.60R FOG     WCI   9  
$$
 
IAZ055>058-069>071-079>083-090>094-202200-
   SOUTHWEST IOWA
  
CITY           SKY/WX    TMP DP  RH WIND       PRES   REMARKS
ATLANTIC *     MOSUNNY   28  23  80 SW21      29.68S WCI  15          
AUDUBON *      PTSUNNY   28  23  80 SW10G21   29.66S WCI  19          
CLARINDA *     SUNNY     30  21  69 SW15      29.76R WCI  19          
COUNCIL BLFS * SUNNY     27  21  80 SW17G25   29.67F WCI  14          
CRESTON *      CLOUDY    30  23  74 SW22G31   29.70R WCI  17          
HARLAN  *      SUNNY     27  21  80 W15       29.67R WCI  15          
LAMONI         CLOUDY    31  23  72 W16G26    29.71R WCI  20          
RED OAK *      MOSUNNY   28  21  74 SW16      29.71S WCI  17          
SHENANDOAH *   MOSUNNY   28  21  74 SW16      29.74S WCI  17          
$$
 
IAZ047>049-059>061-072>074-084-202200-
   CENTRAL IOWA
  
CITY           SKY/WX    TMP DP  RH WIND       PRES   REMARKS
AMES           CLOUDY    30  24  78 SW17      29.66R WCI  18          
ANKENY *       CLOUDY    32  25  74 SW17G24   29.69R WCI  21          
BOONE *        CLOUDY    30  27  86 SW13G24   29.63R WCI  20          
CHARITON *     CLOUDY    32  27  80 SW12G23   29.70R WCI  23          
DES MOINES     CLOUDY    31  24  75 SW18G26   29.68R WCI  19          
GRINNELL*      CLOUDY    32  28  83 SW20      29.68R WCI  20          
KNOXVILLE *    CLOUDY    32  32 100 SW15      29.69R WCI  22          
MARSHALLTOWN   CLOUDY    31  27  85 SW18      29.65R WCI  19          
NEWTON *       CLOUDY    32  27  80 SW16      29.68R WCI  21          
PELLA *        PTSUNNY   33  26  74 W13G21    29.70R WCI  24          
PERRY *        CLOUDY    31  26  83 W15       29.66R WCI  20          
$$
 
IAZ004>006-015-016-023>025-035-036-202200-
   NORTH CENTRAL IOWA
  
CITY           SKY/WX    TMP DP  RH WIND       PRES   REMARKS
ALGONA *       CLOUDY    27  25  93 SW21      29.58R WCI  13          
CLARION *      CLOUDY    28  25  86 SW18G24   29.60S FOG     WCI  16  
ESTHERVILLE    CLOUDY    23  19  85 W20       29.56S FOG     WCI   8  
FORT DODGE *   CLOUDY    29  23  78 W18       29.61R WCI  16          
MASON CITY     CLOUDY    29  25  85 SW17      29.59S WCI  17          
FOREST CITY *  CLOUDY    30  27  86 SW13G20   29.58R WCI  20          
IOWA FALLS *   CLOUDY    32  27  81 SW18G24   29.63R WCI  20          
$$

IAZ007>011-017>019-026>030-037>042-050>054-066-202200-
   NORTHEAST IOWA
  
CITY           SKY/WX    TMP DP  RH WIND       PRES   REMARKS
CEDAR RAPIDS   CLOUDY    32  29  88 SW17      29.65R WCI  21          
CHARLES CITY * LGT SNOW  30  27  86 SW13G21   29.60R WCI  20          
CLINTON *      CLOUDY    34  32  92 SW18      29.68R WCI  23          
DECORAH *      LGT SNOW  30  30 100 SW15      29.58S WCI  19          
DUBUQUE        CLOUDY    33  30  88 SW18      29.62S FOG     WCI  22  
OELWEIN *      PTSUNNY   30  30 100 SW17      29.62R FOG     WCI  18  
WATERLOO       CLOUDY    32  27  81 SW18      29.63R WCI  20          
$$
 
IAZ064-065-067-068-078-202200-
   EAST CENTRAL IOWA
  
CITY           SKY/WX    TMP DP  RH WIND       PRES   REMARKS
DAVENPORT      CLOUDY    34  31  88 SW15      29.70R WCI  24          
IOWA CITY      CLOUDY    35  30  82 SW12G21   29.70R WCI  27          
MT. PLEASANT * CLOUDY    36  34  93 SW13G21   29.72R WCI  27          
MUSCATINE *    CLOUDY    36  32  87 SW13G20   29.71R WCI  27          
QUAD CITIES    CLOUDY    36  32  85 SW14G22   29.69R WCI  27          
$$
 
IAZ062-063-075>077-085>089-095>099-202200-
   SOUTHEAST IOWA
  
CITY           SKY/WX    TMP DP  RH WIND       PRES   REMARKS
BURLINGTON     CLOUDY    35  31  85 SW15      29.72R WCI  25          
FAIRFIELD *    CLOUDY    36  30  80 SW13G20   29.70R WCI  27          
FORT MADISON * CLOUDY    36  34  93 SW13      29.74R WCI  27          
KEOKUK *       CLOUDY    36  34  93 SW14      29.74R WCI  27          
OSKALOOSA *    CLOUDY    33  28  81 W20       29.70R WCI  22          
OTTUMWA        CLOUDY    34  27  75 SW18G29   29.70R WCI  23          
WASHINGTON *   CLOUDY    36  32  87 SW15G22   29.70R WCI  26          
$$

ABBREVIATIONS USED IN REMARKS
   TC - TEMPERATURES IN CELSIUS
  WCI - WIND CHILL INDEX
   HX - HEAT INDEX
  VSB - VISIBILITY  
$$